Regional Weather Roundup
Issued by NWS

Home | Current Version | Previous Version | Graphics & Text | Print | Product List | Glossary On
Versions: 1 2 3 4 5 6 7 8 9 10 11 12 13 14 15 16 17 18 19 20 21 22 23 24 25 26 27 28 29 30 31 32 33 34 35 36 37 38 39 40 41 42 43 44 45 46 47 48 49 50
000
ASUS43 KLOT 301108
RWRIL

ILLINOIS REGIONAL WEATHER ROUNDUP
NATIONAL WEATHER SERVICE CHICAGO/ROMEOVILLE IL
600 AM CDT MON MAY 30 2016

NOTE: "FAIR" INDICATES FEW OR NO CLOUDS BELOW 12,000 FEET WITH NO
SIGNIFICANT WEATHER AND/OR OBSTRUCTIONS TO VISIBILITY.

* THESE STATIONS ARE NOT UNDER NWS QUALITY CONTROL. THEY ALSO MAY NOT
  REPORT WEATHER SUCH AS PRECIPITATION OR FOG.

ILZ001-002-007-009-015-016-024-301200-
NORTHWEST ILLINOIS

CITY           SKY/WX    TMP DP  RH WIND       PRES   REMARKS
MOLINE         PTCLDY    62  58  86 S3        30.01S
STERLING*      CLEAR     60  60 100 CALM      30.02S
SAVANNA*       CLEAR     59  58  98 N3        30.01S
$$

ILZ003-004-008-010-011-017-018-301200-
NORTH CENTRAL ILLINOIS

CITY           SKY/WX    TMP DP  RH WIND       PRES   REMARKS
ROCKFORD       PTCLDY    61  58  90 CALM      30.04R
FREEPORT*      CLEAR     59  56  90 CALM      30.03S
ROCHELLE*      CLEAR     60  58  93 CALM      30.03R
DE KALB*       CLEAR     64  58  82 W3        30.03S
$$

ILZ005-006-012>014-019>023-301200-
NORTHEAST ILLINOIS

CITY           SKY/WX    TMP DP  RH WIND       PRES   REMARKS
CHICAGO-OHARE  PTCLDY    64  58  80 W5        30.01R
CHICAGO-MIDWAY PTCLDY    66  57  72 CALM      30.02R
AURORA         CLEAR     61  58  90 SW5       30.03R
LANSING*       MOCLDY    60  55  86 S3        30.03R
JOLIET*        CLEAR     60  58  94 CALM      30.03R
WAUKEGAN       CLEAR     63  57  81 CALM      30.01R
DUPAGE AIRPORT PTCLDY    61  57  87 CALM      30.02R
KANKAKEE*      CLOUDY    59  56  90 CALM      30.04S
WHEELING       CLEAR     62  56  80 CALM      30.02R
MORRIS*        CLEAR     62  57  84 CALM      30.02R
ROMEOVILLE*    CLEAR     61  55  78 CALM      30.03S
NORTHERLY ISL    N/A     70  55  59 W7          N/A
NORTHERLY ISL    N/A     70  55  59 W7          N/A
$$

LMZ740>746-301200-
SOUTHERN LAKE MICHIGAN

STATION/POSITION SKY/WX   TEMP    WIND        PRES    VSBY  WAVE
                          AIR SEA DIR/SP/G                  HT/PER
                          (F)     (DEG/KT/KT) (MB)    (MI)  (FT/S)
SOUTHERN BUOY              56 51  240/  6/  8 1015.7R         0
WILMETTE HARBOR            62 55  330/  6/  8   N/A           0
HARRISON CRIB              71     270/ 10/ 11   N/A
BURNHAM HARBOR             70     240/  5/  8   N/A
CALUMET HARBOR             66     190/  4/  5 1015.7R
BURNS HARBOR               66     200/  6/  6 1016.9R
MICHIGAN CITY              68     200/ 10/ 11   N/A
MICHIGAN CITY 6N           62 58  210/  6/  8   N/A           0
ST. JOSEPH                 62 61  250/  4/  8   N/A           1
$$

ILZ025>027-034>036-040-047-049-050-058-095>099-301200-
WEST-CENTRAL ILLINOIS

CITY           SKY/WX    TMP DP  RH WIND       PRES   REMARKS
QUINCY         CLEAR     64  62  93 S6        30.03S
GALESBURG*     PTCLDY    61  58  91 CALM      30.03R
MACOMB*        CLEAR     62  60  93 CALM      30.05S
JACKSONVILLE*  MOCLDY    64  61  90 CALM      30.05R
PITTSFIELD*    CLEAR     65  62  90 CALM      30.05S
$$

ILZ028>032-037-038-041>044-048-051>054-059>061-301200-
CENTRAL ILLINOIS

CITY           SKY/WX    TMP DP  RH WIND       PRES   REMARKS
PONTIAC        CLOUDY    63  60  90 S6        30.05R
BLOOMINGTON    CLOUDY    63  60  90 SW6       30.06R
DECATUR        PTCLDY    62  57  83 SW3       30.06R
PEORIA         CLEAR     63  59  87 CALM      30.03S
LACON*         CLOUDY    62  59  90 CALM      30.02S
LINCOLN*       CLEAR     63  60  90 CALM      30.05R
SPRINGFIELD    CLOUDY    65  61  87 CALM      30.05R
TAYLORVILLE    PTCLDY    62  60  96 CALM      30.06R
$$

ILZ033-039-045-046-055>057-062-063-301200-
EAST-CENTRAL ILLINOIS

CITY           SKY/WX    TMP DP  RH WIND       PRES   REMARKS
CHAMPAIGN      CLOUDY    62  57  83 SW7       30.06R
RANTOUL*       CLOUDY    63  60  88 CALM      30.06R
MATTOON        CLOUDY    61  56  83 CALM      30.06R
PARIS*         PTCLDY    60  58  93 CALM      30.07R
$$

ILZ079-100>102-301200-
SOUTHWEST ILLINOIS

CITY           SKY/WX    TMP DP  RH WIND       PRES   REMARKS
ALTON            N/A     61  60  98 CALM      30.06S FOG
BELLEVILLE     CLEAR     62  62 100 CALM      30.05R
CAHOKIA*       CLEAR     62  60  93 CALM      30.06R
SPARTA*        CLEAR     62  61  95 CALM      30.08R
$$

ILZ064>066-069>071-074>076-080>082-084>086-088>090-092>094-301200-
SOUTH-CENTRAL ILLINOIS

CITY           SKY/WX    TMP DP  RH WIND       PRES   REMARKS
CARBONDALE     CLEAR     62  59  90 CALM      30.07R
CAIRO*         CLEAR     63  63  99 CALM      30.06R
EFFINGHAM*     CLEAR     61  61 100 CALM      30.08R
MARION         CLEAR     63  63 100 CALM      30.08R FOG
MT. VERNON     MOCLDY    59  54  82 CALM      30.08R
CENTRALIA*     CLEAR     63  62  99 CALM      30.07R
SALEM*         CLEAR     64  62  93 CALM      30.07R
METROPOLIS*    CLEAR     62  62 100 CALM      30.07R
$$

ILZ067-068-072-073-078-083-087-091-301200-
SOUTHEAST ILLINOIS

CITY           SKY/WX    TMP DP  RH WIND       PRES   REMARKS
LAWRENCEVILLE  PTCLDY    63  61  93 CALM      30.06R
FLORA*         CLEAR     63  63  97 CALM      30.07R
FAIRFIELD*     CLEAR     62  62  99 CALM      30.06R
HARRISBURG*    PTCLDY    62  62 100 CALM      30.07R FOG
ROBINSON*      CLOUDY    57  57 100 CALM      30.07R
CARMI*         CLEAR     62  61  98 W3        30.06R
$$

ABBREVIATIONS USED IN REMARKS
   TC - TEMPERATURE IN CELSIUS
  WCI - WIND CHILL INDEX
   HX - HEAT INDEX
  VSB - VISIBILITY
$$




USA.gov is the U.S. government's official web portal to all federal, state and local government web resources and services.